[keps] orb08138.2l.amsat

Ray Hoad r.hoad at att.net
Sat May 17 16:23:01 PDT 2008


SB KEPS @ AMSAT  $ORB08138.N
2Line Orbital Elements 08138.AMSAT

HR AMSAT ORBITAL ELEMENTS FOR AMATEUR SATELLITES IN NASA FORMAT
FROM WA5QGD FORT WORTH,TX May 17, 2008
Send Subscribe/unsubscribe to KEPS at 
http://www.amsat.org/mailman/listinfo/keps
BID: ORB08138.N

DECODE 2-LINE ELSETS WITH THE FOLLOWING KEY:
1 AAAAAU 00  0  0 BBBBB.BBBBBBBB  .CCCCCCCC  00000-0  00000-0 0  DDDZ
2 AAAAA EEE.EEEE FFF.FFFF GGGGGGG HHH.HHHH III.IIII JJ.JJJJJJJJKKKKKZ
KEY: A-CATALOGNUM B-EPOCHTIME C-DECAY D-ELSETNUM E-INCLINATION F-RAAN
G-ECCENTRICITY H-ARGPERIGEE I-MNANOM J-MNMOTION K-ORBITNUM Z-CHECKSUM

TO ALL RADIO AMATEURS BT

AO-07
1 07530U 74089B   08138.72770434 -.00000027  00000-0  10000-3 0  1780
2 07530 101.4673 171.2413 0011846 322.6077 037.4164 12.53573817533160
AO-10
1 14129U 83058B   08138.15785870 -.00000183  00000-0  10000-3 0  5074
2 14129 025.9410 215.0297 5994868 124.3024 307.4154 02.05870390187465
UO-11
1 14781U 84021B   08137.67253729  .00000295  00000-0  46556-4 0 06719
2 14781 098.1566 171.2323 0009298 168.6261 191.5156 14.79642575299193
RS-15
1 23439U 94085A   08137.61689597 -.00000039  00000-0  10000-3 0 01648
2 23439 064.8163 186.0981 0148135 128.8179 232.6075 11.27551867551405
FO-29
1 24278U 96046B   08137.76528525 -.00000029  00000-0  98506-5 0 07811
2 24278 098.5886 058.1608 0349980 297.0059 059.5748 13.52937476580145
SO-33
1 25509U 98061B   08137.38713627  .00000019  00000-0 -74454-5 0 01993
2 25509 031.4274 136.1549 0354608 109.2423 254.6887 14.28214084499062
AO-40
1 26609U 00072B   08136.96347695 -.00000062  00000-0  10000-3 0 00566
2 26609 007.5565 082.6655 7912497 081.6042 351.8066 01.25583857034634
VO-52
1 28650U 05017B   08137.86416089 -.00000222  00000-0 -21515-4 0 09328
2 28650 097.7907 205.3317 0026150 241.5477 118.3082 14.81460300163962
PO-63
1 29712U 07001D   08138.26280980  .00000538  00000-0  77628-4 0  4517
2 29712 097.8758 197.0274 0015208 118.9009 241.3729 14.80148259 72897
AO-16
1 20439U 90005D   08138.53203429  .00000009  00000-0  18641-4 0  3223
2 20439 098.2274 120.1650 0009984 269.8907 090.1140 14.31793519956534
LO-19
1 20442U 90005G   08137.60622913  .00000057  00000-0  36511-4 0 02494
2 20442 098.1988 127.9190 0010963 270.3511 089.6412 14.32032032956554
AO-27
1 22825U 93061C   08137.62736700  .00000038  00000-0  31462-4 0 09708
2 22825 098.3819 098.8364 0008469 000.9443 359.1757 14.29239020763267
IO-26
1 22826U 93061D   08137.68689565  .00000021  00000-0  24698-4 0 06769
2 22826 098.3742 099.8179 0009278 356.8210 003.2913 14.29487525763369
PO-28
1 22829U 93061G   08137.47894491  .00000051  00000-0  35765-4 0 09465
2 22829 098.3619 100.7280 0009367 328.8841 031.1780 14.30189106763591
GO-32
1 25397U 98043D   08137.75359080 -.00000043  00000-0 -83260-6 0 06021
2 25397 098.3660 174.4653 0001115 022.0942 338.0279 14.23143009511744
MO-46
1 26548U 00057D   08137.68087697 -.00000028  00000-0  14688-4 0 01003
2 26548 064.5575 227.7634 0026482 328.5131 031.4391 14.83259576413149
NO-44
1 26931U 01043C   08138.64137408  .00000043  00000-0  49004-4 0  8809
2 26931 067.0543 003.3473 0006324 278.5961 081.4448 14.29522591346047
SO-50
1 27607U 02058C   08138.48881343  .00000069  00000-0  32688-4 0  6045
2 27607 064.5560 146.8696 0084880 285.3462 073.8265 14.71354839290454
CO-55
1 27844U 03031E   08137.53040346  .00000031  00000-0  34823-4 0 03077
2 27844 098.7153 146.2377 0009265 203.5960 156.4786 14.20578827252940
CO-57
1 27848U 03031J   08138.58087856  .00000004  00000-0  22360-4 0  2582
2 27848 098.7156 146.3751 0009061 205.9124 154.1597 14.20387611253064
AO-51
1 28375U 04025K   08137.79350092  .00000015  00000-0  17525-4 0 01015
2 28375 098.0734 164.1271 0083002 248.4368 110.7965 14.40607268203886
CO-56
1 28941U 06005C   08138.72740753  .00035251  27320-5  26674-3 0   635
2 28941 098.1059 245.2952 0172322 151.7410 209.3362 15.55455645125304
CP4
1 31122U 07012F   08137.87502889  .00000553  00000-0  13192-3 0  3384
2 31122 098.0440 204.6262 0087019 066.9494 294.0756 14.55124562 57528
CP3
1 31128U 07012M   08137.63508669 -.00000046  00000-0  00000-0 0 03341
2 31128 098.0415 202.4058 0104098 072.7305 288.5253 14.51944866057352
LIBERT
1 31129U 07012N   08138.16248882  .00000340  00000-0  89029-4 0  9703
2 31129 098.0402 202.9486 0103714 070.9141 290.3226 14.52035632 57412
NOAA-10
1 16969U 86073A   08137.60998752 -.00000142  00000-0 -39742-4 0 01237
2 16969 098.7240 159.6423 0011252 273.6728 086.3170 14.27358395126932
NOAA-11
1 19531U 88089A   08137.83985667 -.00000197  00000-0 -79236-4 0 01647
2 19531 098.7959 227.6015 0011786 153.9555 206.2203 14.14870455013476
NOAA-12
1 21263U 91032A   08137.89767908  .00000152  00000-0  82999-4 0 06730
2 21263 098.7658 139.8537 0011822 212.7827 147.2626 14.25532175883932
MET-3/5
1 21655U 91056A   08137.96981906  .00000051  00000-0  10000-3 0 04419
2 21655 082.5523 126.4398 0015009 090.3836 269.9006 13.17015249805472
MET-2/21
1 22782U 93055A   08137.53565019  .00000035  00000-0  18289-4 0 01459
2 22782 082.5455 136.6881 0023245 022.8111 337.4069 13.83627473742757
OKEAN-4
1 23317U 94066A   08137.74144169  .00000101  00000-0  95985-5 0  5883
2 23317 082.5412 344.4157 0020736 228.3885 131.5568 14.82609327733624
NOAA-14
1 23455U 94089A   08137.84131537 -.00000128  00000-0 -43848-4 0 01468
2 23455 098.9461 210.0636 0008763 229.0617 130.9795 14.13739783689921
SICH-1
1 23657U 95046A   08137.74305860  .00000188  00000-0  20837-4 0 03860
2 23657 082.5256 125.3914 0022471 220.4118 139.5438 14.81577239685562
NOAA-15
1 25338U 98030A   08137.89448827 -.00000037  00000-0  23544-5 0 04674
2 25338 098.5528 130.5508 0011394 129.3651 230.8531 14.24700359520348
RESURS
1 25394U 98043A   08138.75794427 -.00000014  00000-0  12002-4 0  9289
2 25394 098.3902 184.1003 0001069 332.0814 028.0308 14.24159119512118
FENGYUN1
1 25730U 99025A   08137.92517272 -.00000510  00000-0 -27593-3 0 04167
2 25730 098.7223 114.7717 0019356 263.6872 096.2093 14.07693494464567
OKEAN-0
1 25860U 99039A   08137.54031058  .00000029  00000-0  11749-4 0 03706
2 25860 097.7487 129.4916 0001731 051.7508 308.3856 14.73520480474737
NOAA-16
1 26536U 00055A   08137.89747793 -.00000068  00000-0 -11741-4 0 09359
2 26536 099.1548 126.3903 0009955 318.1280 041.9160 14.12479318394350
NOAA-17
1 27453U 02032A   08137.85435538  .00000168  00000-0  91842-4 0 09283
2 27453 098.5354 203.3853 0011683 194.2435 165.8411 14.23973719306346
NOAA-18
1 28654U 05018A   08137.85562989 -.00000133  00000-0 -49205-4 0 04303
2 28654 098.8653 079.1726 0015250 044.7592 315.4802 14.11161896154058
HUBBLE
1 20580U 90037B   08137.41467609  .00000255  00000-0  68420-5 0 01416
2 20580 028.4684 170.4532 0003659 047.7326 312.3574 15.00377619790205
UARS
1 21701U 91063B   08137.91635308  .00005557  00000-0  84695-4 0 03851
2 21701 056.9731 297.8103 0090042 119.2544 241.7559 15.51756597917646
PO-34
1 25520U 98064B   08137.95121538  .00000359  00000-0  79294-5 0 00011
2 25520 028.4592 027.8970 0005224 302.0861 057.9224 15.17189318528415
ISS
1 25544U 98067A   08138.85293981  .00007470  00000-0  50384-4 0  4969
2 25544 051.6402 172.7560 0005720 220.4168 118.8720 15.76327413543733
OO-38
1 26063U 00004C   08138.70024501 -.00000030  00000-0  10073-4 0  2127
2 26063 100.1918 207.7967 0036602 295.8674 063.8736 14.35835088435195
UWE-1
1 28892U 05043C   08137.75607733  .00000063  00000-0  22775-4 0 00490
2 28892 098.0989 032.1428 0018008 144.5573 215.6854 14.59626983136015
CO-58
1 28895U 05043F   08137.72486058 -.00000021  00000-0  52137-5 0   227
2 28895 098.1026 032.4582 0018402 145.0158 215.2275 14.59666956135890
NCUBE2
1 28897U 05043H   08137.28180856  .00000122  00000-0  35028-4 0  5525
2 28897 098.0998 031.9577 0017581 146.7840 213.4465 14.59837604128118
FCAL
1 29667U 06055J   08138.39402321  .00428128  12069-4  11087-3 0  9560
2 29667 051.6157 109.9698 0001052 293.8925 066.2226 16.27993597 81613
FALCON
1 30776U 07006E   08137.95469598  .00000290  00000-0  24202-4 0 03157
2 30776 035.4353 342.9094 0000504 025.9403 334.1338 15.02982498065443
MAST
1 31126U 07012K   08138.60601815 -.00000037  00000-0  20688-5 0  3286
2 31126 098.0399 204.2587 0095850 066.9638 294.1650 14.53422597 57579
CAPE1
1 31130U 07012P   08138.18153110  .00000129  00000-0  40344-4 0  3083
2 31130 098.0418 202.9333 0103984 070.8159 290.4250 14.51962066 57225
CUTE1-7
1 32785U 08021C   08138.72348253 -.00000012  00000-0  53595-5 0   526
2 32785 097.9942 198.7150 0014115 231.5844 128.4100 14.81355211  2893
COMPASS
1 32787U 08021E   08136.83161411  .00000158  00000-0  27104-4 0 00501
2 32787 097.9906 196.8149 0014852 240.9341 119.0377 14.81402909002615
AAUSAT2
1 32788U 08021F   08138.85653900  .00000150  00000-0  25990-4 0   441
2 32788 097.9914 198.8372 0014372 231.3827 128.6096 14.81510869  2917
DELFIC3
1 32789U 08021G   08137.91270232  .00000211  00000-0  33895-4 0 00543
2 32789 097.9933 197.8998 0014765 235.7884 124.1931 14.81377044002778
SEEDS
1 32791U 08021J   08138.18427642  .00000140  00000-0  24832-4 0   390
2 32791 097.9948 198.1686 0015206 232.7516 127.2307 14.81264750  2786
CANX-2
1 32797U 08021L   08136.96730692 -.00000144  00000-0 -11425-4 0 00314
2 32797 097.9945 196.9610 0014327 238.4303 121.5499 14.81350511001310
/EX






More information about the Keps mailing list